全球星 M080星 (GLOBALSTAR M080)

导读

GLOBALSTAR M080是Globalstar公司运营的低轨移动通信卫星,隶属于第二代M-CLASS卫星星座。该卫星于2011年12月28日发射,运行在约1414公里高度的近极地轨道。它主要提供语音和数据通信服务,支持偏远地区手持终端连接,提升了系统容量与可靠性,服务于应急通信、海上、航空等多应用场景,目前仍在轨运行。

Basic Information
目录编号:
38041
目录名称:
GLOBALSTAR M080
国际标识:
2011-080B
轨道中心:
EARTH
卫星名称:
全球星 M080星
卫星全名:
全球星 M080星 (GLOBALSTAR M080)
卫星状态:
在轨 (已飞行5326 天)
发射日期:
2011-12-28 UTC
国别 :
(GLOB)
星等 :
--
Orbit Information
数据来源 国际轨道数据 AOE轨道数据
星历时间 2026-07-28T05:15:09+0800
17小时前
查看轨道信息
2026-07-28T10:00:00+0800
12小时前
查看轨道信息
半长轴 7791.776km 7791.786km
偏心率 0.0000318 0.0000592
轨道倾角 52.004° 52.008°
近地点辐角 50.531° 135.711°
升交点赤经 255.118° 254.511°
平近点角 121.284° 215.418°
近地点 1413.391km 1413.187km
远地点 1413.887km 1414.111km
周期 114.081分钟 114.081分钟
每日圈数 12.622579 12.622556
Detailed Information
固有亮度:
5
最大亮度:
7.2
平衡模式:
三轴稳定
覆盖范围:
全球
运营商:
全球星公司
运营商所在国:
美国
使用方式:
暂无
Satellite Introduction
全球星星座由48颗卫星加8颗备份星组成。这些卫星分布在8个倾角为52度的圆形轨道平面上,每个轨道平面6颗卫星,另有1 颗备用星。轨道高度约为1414km,传输时延和处理时延小于300ms,整个系统的覆盖区为南北纬70度以内的地区。该卫星仍在工作。
2D Orbit Map
3D Orbit Map
Orbit Altitude Analysis Chart
Orbit Inclination Analysis Chart
Orbit Comprehensive Analysis Chart
View Comprehensive Chart